Regional Weather Roundup
Issued by NWS

Home | Current Version | Previous Version | Graphics & Text | Print | Product List | Glossary On
Versions: 1 2 3 4 5 6 7 8 9 10 11 12 13 14 15 16 17 18 19 20 21 22 23 24 25 26 27 28 29 30 31 32 33 34 35 36 37 38 39 40 41 42 43 44 45 46 47 48 49 50
000
ASUS43 KMKX 221800
RWRWI

WISCONSIN REGIONAL WEATHER ROUNDUP
NATIONAL WEATHER SERVICE MILWAUKEE/SULLIVAN WI
100 PM CDT TUE AUG 22 2017

NOTE: "FAIR" INDICATES FEW OR NO CLOUDS BELOW 12,000 FEET WITH NO
SIGNIFICANT WEATHER AND/OR OBSTRUCTIONS TO VISIBILITY.

WIZ001-002-006>008-014>016-023>028-221900-
NORTHWEST WISCONSIN

CITY           SKY/WX    TMP DP  RH WIND       PRES   REMARKS
SUPERIOR ARPT    N/A     69  52  54 NW16G23   29.94S
ASHLAND        PTSUNNY   69  52  54 W15G24    29.91S
6HR MIN TEMP:  56; 6HR MAX TEMP:  71;

HAYWARD        MOSUNNY   68  47  46 W13G23    29.95F
6HR MIN TEMP:  57; 6HR MAX TEMP:  69;

SIREN          CLOUDY    71  47  43 NW17      29.98F
CUMBERLAND     MOSUNNY   68  48  49 NW14G22   29.99F
RICE LAKE      MOSUNNY   69  52  55 W12G17    30.00F
CHETEK         MOSUNNY   69  52  53 NW8G20    29.99S
LADYSMITH      MOSUNNY   69  50  51 W21       29.98F
EAU CLAIRE     NOT AVBL
MENOMONIE      MOSUNNY   70  51  50 W15G23    30.00F
NEW RICHMOND   SUNNY     70  48  44 NW15      30.02F
OSCEOLA        MOSUNNY   71  50  47 W14G24    30.04F
$$

WIZ003>005-009-010-017-018-221900-
NORTH CENTRAL WISCONSIN

CITY           SKY/WX    TMP DP  RH WIND       PRES   REMARKS
MANITOWISH WTR PTSUNNY   66  50  55 NW13G21   29.91R
ARBOR VITAE    MOSUNNY   66  49  55 NW12G21   29.91S
WOODRUFF       MOSUNNY   66  49  55 NW12G21   29.91S
RHINELANDER    PTSUNNY   67  49  52 NW14G24   29.91F
6HR MIN TEMP:  58; 6HR MAX TEMP:  67;

EAGLE RIVER    PTSUNNY   65  46  51 NW12G17   29.89S
LAND O LAKES   PTSUNNY   67  49  53 W10G18    29.89F
PHILLIPS       MOSUNNY   67  50  55 NW13G20   29.93F
6HR MIN TEMP:  55; 6HR MAX TEMP:  67;

TOMAHAWK         N/A     65  48  52 W13G22    29.93F
MEDFORD        MOSUNNY   65  49  54 NW15G25   29.95S
MERRILL        MOSUNNY   68  52  56 NW15G22   29.93S
$$

WIZ029-030-035-036-043>047-221900-
CENTRAL WISCONSIN

CITY           SKY/WX    TMP DP  RH WIND       PRES   REMARKS
WAUSAU         MOSUNNY   69  48  47 NW17G24   29.91S
6HR MIN TEMP:  61; 6HR MAX TEMP:  69;

MOSINEE        PTSUNNY   68  52  56 W17G23    29.94S
MARSHFIELD     MOSUNNY   70  47  43 NW15G26   29.95S
6HR MIN TEMP:  60; 6HR MAX TEMP:  70;

STEVENS POINT  PTSUNNY   67  49  51 NW12G20   29.93S
WAUPACA        MOSUNNY   74  51  43 W13G20    29.91R
WAUTOMA        NOT AVBL
WISC RAPIDS    MOSUNNY   70  50  49 NW13      29.95S
6HR MIN TEMP:  64; 6HR MAX TEMP:  73;

CAMP DOUGLAS   NOT AVBL
$$

WIZ011>013-019>022-031-037>040-048>050-221900-
NORTHEAST WISCONSIN

CITY           SKY/WX    TMP DP  RH WIND       PRES   REMARKS
ANTIGO         PTSUNNY   65  49  56 NW12G24   29.91R
SHAWANO        PTSUNNY   71  50  46 NW14      29.87S
OCONTO         MOSUNNY   72  50  46 NW12G21   29.84S
STURGEON BAY   SUNNY     72  55  55 NW12G18   29.84R
6HR MIN TEMP:  64; 6HR MAX TEMP:  72;

GREEN BAY      SUNNY     72  56  57 NW13G23   29.86S
6HR MIN TEMP:  66; 6HR MAX TEMP:  73;

MANITOWOC      NOT AVBL
APPLETON       PTSUNNY   72  45  37 W21G29    29.88S
CLINTONVILLE   PTSUNNY   72  46  40 NW15      29.88S
OSHKOSH        MOSUNNY   73  52  47 NW20G26   29.88S
6HR MIN TEMP:  66; 6HR MAX TEMP:  73;

$$

WIZ032>034-041-042-053>061-221900-
SOUTHWEST WISCONSIN

CITY           SKY/WX    TMP DP  RH WIND       PRES   REMARKS
LA CROSSE      SUNNY     77  50  38 NW17      29.99R
6HR MIN TEMP:  68; 6HR MAX TEMP:  77;

SPARTA         MOSUNNY   71  50  47 NW21G30   29.98S
VIROQUA        MOSUNNY   69  51  53 NW13G21   30.00S
BOSCOBEL       MOSUNNY   76  52  43 NW13      29.98S
6HR MIN TEMP:  67; 6HR MAX TEMP:  77;

PRAIRIE DU CHI SUNNY     74  49  41 NW13G21   29.99F
PLATTEVILLE    PTSUNNY   72  58  59 NW12G20   29.99R
$$

WIZ056-057-062-063-064-067-068-221900-
SOUTH CENTRAL WISCONSIN

CITY           SKY/WX    TMP DP  RH WIND       PRES   REMARKS
REEDSBURG      MOSUNNY   73  54  51 W12G20    29.95S
BARABOO/DELLS  MOSUNNY   73  49  41 W15G23    29.94F
LONE ROCK      NOT AVBL
MINERAL POINT  MOSUNNY   73  54  49 NW10G22   29.98R
MADISON        PTSUNNY   73  52  47 NW15G25   29.93S
6HR MIN TEMP:  66; 6HR MAX TEMP:  74;

MIDDLETON      MOSUNNY   73  55  53 NW12G20   29.95R
WATERTOWN      MOSUNNY   73  54  50 NW15G24   29.91R
MONROE         MOSUNNY   72  52  49 NW16G22   29.95S
JANESVILLE     MOSUNNY   79  55  44 NW18G25   29.91S
$$

WIZ051-052-058>065-066-070>072-221900-
SOUTHEAST WISCONSIN

CITY           SKY/WX    TMP DP  RH WIND       PRES   REMARKS
MILWAUKEE      PTSUNNY   78  54  43 NW21G33   29.87R
6HR MIN TEMP:  71; 6HR MAX TEMP:  80;

WAUKESHA       MOSUNNY   72  55  56 W17       29.91R
MILWAUKEE/TIMM MOSUNNY   75  50  41 W22       29.88R
RACINE         MOSUNNY   78  57  48 NW16G25   29.89R
6HR MIN TEMP:  69; 6HR MAX TEMP:  78;

KENOSHA        MOSUNNY   78  56  46 NW14G26   29.88S
6HR MIN TEMP:  69; 6HR MAX TEMP:  79;

FOND DU LAC    MOSUNNY   72  51  47 NW14G23   29.89S
6HR MIN TEMP:  67; 6HR MAX TEMP:  74;

SHEBOYGAN      MOSUNNY   73  56  54 NW16G23   29.87R
6HR MIN TEMP:  67; 6HR MAX TEMP:  74;

WEST BEND      PTSUNNY   70  54  56 NW20G29   29.88S
JUNEAU         PTSUNNY   71  53  52 W13G20    29.92S
$$

LSZ147-162-221900-
LAKE SUPERIOR

STATION/POSITION TIME  TEMP    WIND        PRES    WAVE
                       AIR SEA DIR/SP/G            HT/PER
                 (UTC) (F)     (DEG/KT/KT) (MB)    (FT/S)
W MID LAKE BUOY  1650   61 60  270/ 17/ 21 1010.0R   4/ 5
DEVILS ISLAND    1700   62     250/ 20/ 24 1011.7S
SAXON HARBOR     1740   67     300/ 15/ 19 1011.9F
$$

LMZ867-665-643>646-221900-
LAKE MICHIGAN

STATION/POSITION TIME  TEMP    WIND        PRES    WAVE
                       AIR SEA DIR/SP/G            HT/PER
                 (UTC) (F)     (DEG/KT/KT) (MB)    (FT/S)
S GREEN BAY BUOY 1730   70 71  280/ 14/ 19 1010.4R
N MID LAKE BUOY  1650   65 67  290/ 19/ 23 1008.4R   4/ 4
NORTHPORT PIER   1740   69     300/ 12/ 18 1008.8S
KEWAUNEE LAKESHO 1730   71     320/ 10/ 15 1009.7R
SHEBOYGAN LAKESH 1700   70     290/ 19/ 22 1010.4R
PORT WASHINGTON  1730   76     300/ 11/ 18 1012.2R
ATWATER BUOY     1609   71 65  280/ 14/ 19 1011.2R
MILWAUKEE LAKESH 1730   74     330/ 18/ 22   N/A
S MID LAKE BUOY  1650   70 71  310/ 17/ 19 1010.6R   4/ 5
KENOSHA   LAKESH 1700   76     300/ 15/ 24 1010.8
$$

TC  - TEMPERATURE IN CELSIUS
VSB - VISIBILITY IN STATUTE MILES
WCI - WIND CHILL INDEX
HX  - HEAT INDEX




USA.gov is the U.S. government's official web portal to all federal, state and local government web resources and services.